Powrót do katalogu

COSMOS 2251 DEB

AktywnyLEO
NORAD 34303·DEBRIS·🇷🇺 Russia

Wystrzelony Jun 16, 1993 z Plesetsk Cosmodrome

Loading…

Następne Przeloty (najbliższe 24 godziny)

TLE

ŚwieżeSource: Space-Track

Epoka: Sep 14, 2026, 01:27 UTC

1 34303U 93036MZ  26257.06076742  .00003071  00000-0  60941-3 0  9992
2 34303  74.0027 124.8238 0133781 196.5769 315.1900 14.57094987919696

Śledź COSMOS 2251 DEB w czasie rzeczywistym z AllMySat

Download on the App Store